[[{"header":{"parameterUnit":"m.s-1","parameterCategory":1,"la1":30.2991,"la2":30.254,"lo1":-89.0895,"lo2":-89.0444,"dy":0.0017,"dx":0.0017,"nx":28,"ny":28,"refTime":"2024-05-29T21:00:00:Z","depth":0,"parameterNumber":2,"parameterNumberName":"U-component_of_WINDS"},"data":[0,0,0,0,0,0,0,0,0,0,0,0,0,0,0,0,0,0,0,0,0,0,0,0,0,0,0,0,0,0,0,0,0,0,0,0,0,0,0,0,0,0,0,0,0,0,0,0,0,0,0,0,0,0,0,0,0,0,-1.2691,-1.2691,0,-1.2667,-1.2667,-1.2666,-1.2624,-1.2624,-1.2623,-1.2622,-1.2598,-1.2598,-1.2598,0,0,0,0,0,0,0,0,0,0,0,0,0,-1.2702,-1.2702,-1.2691,-1.2691,-1.2691,-1.2667,-1.2667,-1.2666,-1.2624,-1.2624,-1.2623,-1.2622,-1.2598,-1.2598,-1.2598,0,0,0,0,0,0,0,0,0,0,0,0,0,-1.269,-1.2702,-1.2691,-1.2667,-1.2665,-1.2667,-1.2667,-1.2666,-1.2625,-1.2624,-1.2622,-1.2621,-1.2598,-1.2598,-1.2598,-1.2622,0,0,-1.2598,-1.2598,0,0,0,0,0,0,0,0,-1.269,-1.2689,-1.2671,-1.2669,-1.2666,-1.2647,-1.2661,-1.2651,-1.2625,-1.264,-1.2622,-1.2621,-1.2615,-1.2614,-1.2612,-1.2621,-1.262,-1.2598,-1.2598,-1.2598,-1.2598,0,0,0,0,0,0,0,-1.2691,-1.269,-1.2682,-1.2671,-1.2668,-1.2657,-1.2654,-1.2659,-1.2634,-1.2638,-1.2635,-1.2633,-1.2614,-1.2612,-1.2611,-1.262,-1.2598,-1.2598,-1.2598,-1.2598,-1.2647,-1.2648,0,0,0,0,0,0,-1.2696,-1.2691,-1.2682,-1.2681,-1.2676,-1.2658,-1.2655,-1.2655,-1.2634,-1.263,-1.2634,-1.2631,-1.2612,-1.2611,-1.261,-1.2636,-1.2598,-1.2598,-1.2598,-1.2645,-1.2647,-1.2648,0,0,0,0,0,0,-1.2696,-1.2695,-1.2683,-1.2685,-1.2683,-1.2659,-1.2659,-1.2655,-1.2653,-1.2631,-1.2626,-1.2637,-1.2611,-1.261,-1.2619,-1.2635,-1.2598,-1.2599,-1.2644,-1.2646,-1.2648,-1.269,0,0,0,0,0,0,-1.2697,-1.2696,-1.2705,-1.2686,-1.2683,-1.2693,-1.266,-1.2655,-1.2653,-1.2649,-1.2632,-1.2628,-1.261,-1.2619,-1.2619,-1.2635,-1.2599,-1.2643,-1.2645,-1.2647,-1.2688,-1.2694,-1.2699,0,0,0,0,0,-1.2697,-1.2718,-1.2705,-1.2705,-1.2694,-1.2694,-1.2693,-1.2671,-1.2655,-1.2663,-1.2649,-1.2629,-1.2633,-1.2621,-1.262,-1.2636,-1.2641,-1.2644,-1.2647,-1.2685,-1.2692,-1.2699,0,0,0,0,0,0,-1.274,-1.2715,-1.2701,-1.2716,-1.2708,-1.2687,-1.2698,-1.268,-1.2676,-1.2672,-1.2646,-1.2642,-1.2655,-1.2646,-1.2633,-1.2658,-1.2634,-1.2637,-1.2663,-1.267,-1.2676,-1.2677,-1.2599,0,0,0,0,0,-1.2751,-1.2754,-1.2732,-1.2748,-1.2744,-1.2722,-1.2721,-1.2705,-1.2695,-1.2692,-1.2678,-1.2669,-1.2669,-1.2669,-1.2667,-1.2686,-1.2681,-1.2697,-1.2702,-1.2707,-1.271,-1.2718,-1.2724,-1.2657,-1.2657,-1.2657,0,0,-1.2775,-1.2761,-1.2765,-1.2756,-1.2747,-1.275,-1.2719,-1.2724,-1.2726,-1.2692,-1.27,-1.269,-1.2679,-1.2693,-1.2698,-1.2686,-1.2727,-1.271,-1.2714,-1.2714,-1.2722,-1.2728,-1.2734,-1.2659,-1.2659,-1.2658,0,0,-1.2819,-1.2809,-1.2821,-1.2813,-1.28,-1.2785,-1.2788,-1.277,-1.2762,-1.2769,-1.2744,-1.2746,-1.2746,-1.2738,-1.2734,-1.2775,-1.2756,-1.2775,-1.2804,-1.2813,-1.2818,-1.2823,-1.2837,-1.2842,-1.2778,-1.2778,-1.2778,0,-1.2849,-1.2853,-1.2829,-1.2835,-1.2832,-1.2802,-1.2813,-1.2807,-1.2794,-1.2793,-1.2779,-1.2777,-1.2767,-1.2779,-1.2789,-1.2787,-1.2789,-1.2777,-1.2819,-1.2824,-1.2828,-1.2841,-1.2846,-1.278,-1.278,-1.278,-1.278,0,-1.2891,-1.2894,-1.2905,-1.2893,-1.2891,-1.29,-1.2878,-1.2878,-1.2863,-1.2849,-1.2857,-1.2844,-1.2838,-1.284,-1.2825,-1.2849,-1.2842,-1.2824,-1.28,-1.2837,-1.2849,-1.2854,-1.2784,-1.2783,-1.2782,-1.2782,0,0,-1.2962,-1.2936,-1.2941,-1.2935,-1.2918,-1.292,-1.2927,-1.2922,-1.2923,-1.2915,-1.292,-1.292,-1.2904,-1.2899,-1.2883,-1.2891,-1.2923,-1.2872,-1.2871,-1.2882,-1.2949,-1.2962,-1.2968,-1.291,-1.2911,-1.2912,-1.295,0,-1.3002,-1.3013,-1.2992,-1.3008,-1.301,-1.2981,-1.2987,-1.2977,-1.2965,-1.2965,-1.2951,-1.2951,-1.2929,-1.2926,-1.2932,-1.2918,-1.2936,-1.2915,-1.2915,-1.2915,-1.2919,-1.2975,-1.2989,-1.3025,-1.2954,-1.2955,-1.2955,0,-1.3051,-1.3045,-1.3061,-1.3043,-1.3043,-1.3049,-1.3042,-1.3043,-1.3031,-1.3021,-1.3016,-1.2997,-1.3002,-1.2979,-1.2986,-1.2972,-1.2971,-1.2963,-1.2964,-1.2963,-1.2938,-1.2975,-1.3036,-1.3042,-1.2963,-1.2962,-1.2962,0,-1.3101,-1.3097,-1.3106,-1.3102,-1.3081,-1.3086,-1.3077,-1.3065,-1.3062,-1.3056,-1.3055,-1.3049,-1.3046,-1.3043,-1.3022,-1.3007,-1.3032,-1.3007,-1.3024,-1.3024,-1.303,-1.303,-1.3092,-1.303,-1.303,-1.303,-1.3029,0,-1.3148,-1.3159,-1.3128,-1.3133,-1.3145,-1.312,-1.3132,-1.312,-1.3109,-1.3112,-1.3086,-1.3089,-1.3062,-1.3062,-1.3046,-1.3054,-1.3053,-1.3045,-1.3041,-1.3048,-1.3049,-1.3046,-1.3043,-1.3031,-1.3031,-1.303,-1.303,0,-1.3205,-1.3185,-1.3193,-1.3172,-1.3167,-1.3176,-1.3159,-1.3163,-1.3148,-1.3152,-1.3152,-1.3129,-1.3127,-1.3107,-1.3101,-1.309,-1.3104,-1.3095,-1.3108,-1.3105,-1.3123,-1.3122,-1.3186,-1.3193,-1.3127,-1.3127,-1.3128,0,-1.3237,-1.3244,-1.3224,-1.3224,-1.3217,-1.3217,-1.3215,-1.319,-1.3189,-1.3176,-1.3182,-1.3178,-1.3174,-1.3173,-1.3156,-1.3151,-1.3142,-1.3164,-1.3141,-1.3147,-1.3142,-1.3141,-1.3142,-1.317,-1.317,-1.3171,-1.3172,0,-1.3294,-1.3284,-1.3281,-1.3275,-1.3273,-1.3267,-1.3259,-1.326,-1.3234,-1.3233,-1.3231,-1.3228,-1.3222,-1.3219,-1.3211,-1.3202,-1.3182,-1.3179,-1.3183,-1.319,-1.3197,-1.3193,-1.3122,-1.3178,-1.3177,-1.3177,-1.3176,-1.3176,-1.334,-1.3345,-1.3331,-1.3329,-1.3321,-1.3314,-1.3317,-1.3302,-1.33,-1.3293,-1.3279,-1.3279,-1.3267,-1.3254,-1.3247,-1.3246,-1.3235,-1.324,-1.3241,-1.3243,-1.3247,-1.3197,-1.3245,-1.3245,-1.3245,-1.3244,-1.3244,0,-1.3396,-1.3386,-1.3384,-1.3374,-1.3372,-1.3353,-1.3344,-1.3343,-1.3344,-1.3334,-1.333,-1.3328,-1.3324,-1.3307,-1.3301,-1.3304,-1.3295,-1.3304,-1.3303,-1.3301,-1.3258,-1.3255,-1.3311,-1.3311,-1.3311,-1.3311,-1.3311,-1.3311,-1.3425,-1.3433,-1.342,-1.3424,-1.3413,-1.3413,-1.3409,-1.3403,-1.3394,-1.3393,-1.339,-1.3378,-1.3365,-1.3358,-1.3354,-1.3349,-1.3348,-1.3359,-1.3351,-1.3311,-1.3304,-1.3298,-1.3296,-1.3359,-1.3359,-1.3395,-1.3395,-1.3395]},{"header":{"parameterUnit":"m.s-1","parameterCategory":1,"la1":30.2991,"la2":30.254,"lo1":-89.0895,"lo2":-89.0444,"dy":0.0017,"dx":0.0017,"nx":28,"ny":28,"refTime":"2024-05-29T21:00:00:Z","depth":0,"parameterNumber":3,"parameterNumberName":"V-component_of_WINDS"},"data":[0,0,0,0,0,0,0,0,0,0,0,0,0,0,0,0,0,0,0,0,0,0,0,0,0,0,0,0,0,0,0,0,0,0,0,0,0,0,0,0,0,0,0,0,0,0,0,0,0,0,0,0,0,0,0,0,0,0,-0.5941,-0.5941,0,-0.597,-0.597,-0.5971,-0.6015,-0.6016,-0.6017,-0.6017,-0.6046,-0.6046,-0.6046,0,0,0,0,0,0,0,0,0,0,0,0,0,-0.5923,-0.5923,-0.5941,-0.5941,-0.5941,-0.597,-0.597,-0.5971,-0.6015,-0.6016,-0.6017,-0.6018,-0.6046,-0.6046,-0.6046,0,0,0,0,0,0,0,0,0,0,0,0,0,-0.5939,-0.5923,-0.5941,-0.5967,-0.597,-0.597,-0.597,-0.5971,-0.6015,-0.6016,-0.6017,-0.6018,-0.6046,-0.6046,-0.6046,-0.6023,0,0,-0.6046,-0.6046,0,0,0,0,0,0,0,0,-0.5938,-0.594,-0.5963,-0.5965,-0.5968,-0.599,-0.5975,-0.5988,-0.6014,-0.5998,-0.6017,-0.6019,-0.6027,-0.6028,-0.6031,-0.6024,-0.6025,-0.6046,-0.6046,-0.6047,-0.6047,0,0,0,0,0,0,0,-0.5937,-0.5939,-0.5952,-0.5963,-0.5966,-0.5977,-0.5981,-0.5977,-0.6005,-0.5999,-0.6002,-0.6005,-0.6028,-0.6031,-0.6032,-0.6026,-0.6046,-0.6046,-0.6047,-0.6047,-0.6001,-0.6,0,0,0,0,0,0,-0.5932,-0.5938,-0.5951,-0.5953,-0.5956,-0.5977,-0.5981,-0.5982,-0.6005,-0.601,-0.6004,-0.6007,-0.603,-0.6032,-0.6033,-0.6007,-0.6047,-0.6047,-0.6047,-0.6003,-0.6001,-0.6,0,0,0,0,0,0,-0.5932,-0.5933,-0.595,-0.5946,-0.5949,-0.5976,-0.5977,-0.5982,-0.5985,-0.6009,-0.6014,-0.6002,-0.6031,-0.6033,-0.6025,-0.6009,-0.6047,-0.6047,-0.6004,-0.6002,-0.6,-0.5954,0,0,0,0,0,0,-0.5931,-0.5933,-0.5924,-0.5946,-0.5949,-0.5941,-0.5976,-0.5981,-0.5985,-0.5989,-0.6008,-0.6013,-0.6032,-0.6025,-0.6025,-0.6009,-0.6047,-0.6006,-0.6003,-0.6001,-0.5958,-0.5951,-0.5946,0,0,0,0,0,-0.593,-0.5909,-0.5923,-0.5924,-0.5939,-0.594,-0.5942,-0.5966,-0.5983,-0.5974,-0.599,-0.6012,-0.6011,-0.6024,-0.6024,-0.6008,-0.6007,-0.6004,-0.6001,-0.596,-0.5953,-0.5946,0,0,0,0,0,0,-0.5884,-0.5913,-0.5928,-0.5914,-0.5924,-0.5948,-0.5938,-0.5957,-0.5963,-0.5966,-0.5995,-0.5999,-0.5987,-0.5997,-0.6011,-0.5987,-0.6012,-0.6009,-0.5981,-0.5974,-0.5968,-0.5965,-0.6047,0,0,0,0,0,-0.5872,-0.5871,-0.5896,-0.5881,-0.5886,-0.5911,-0.5912,-0.593,-0.5942,-0.5946,-0.5961,-0.5972,-0.5974,-0.5975,-0.5978,-0.596,-0.5965,-0.5949,-0.5943,-0.5939,-0.5935,-0.5927,-0.592,-0.5991,-0.5991,-0.5991,0,0,-0.5848,-0.5864,-0.5861,-0.5873,-0.5883,-0.5881,-0.5914,-0.5911,-0.5909,-0.5945,-0.5939,-0.595,-0.5964,-0.5951,-0.5946,-0.5959,-0.5917,-0.5935,-0.5931,-0.5931,-0.5923,-0.5916,-0.591,-0.5989,-0.5989,-0.5989,0,0,-0.5802,-0.5814,-0.5803,-0.5813,-0.5828,-0.5845,-0.5842,-0.5863,-0.5872,-0.5866,-0.5893,-0.5892,-0.5895,-0.5904,-0.5909,-0.5867,-0.5887,-0.5868,-0.5837,-0.5828,-0.5822,-0.5818,-0.5802,-0.5797,-0.5865,-0.5865,-0.5865,0,-0.577,-0.5768,-0.5795,-0.579,-0.5794,-0.5827,-0.5816,-0.5824,-0.5839,-0.5842,-0.5856,-0.5861,-0.5873,-0.5862,-0.5852,-0.5855,-0.5853,-0.5865,-0.5821,-0.5817,-0.5812,-0.5798,-0.5792,-0.5862,-0.5863,-0.5863,-0.5863,0,-0.5727,-0.5726,-0.5715,-0.5729,-0.5732,-0.5724,-0.575,-0.575,-0.5767,-0.5782,-0.5776,-0.5791,-0.5798,-0.5797,-0.5814,-0.5789,-0.5797,-0.5816,-0.5841,-0.5803,-0.579,-0.5785,-0.5859,-0.586,-0.586,-0.5861,0,0,-0.5652,-0.5682,-0.5677,-0.5684,-0.5704,-0.5703,-0.5697,-0.5704,-0.5704,-0.5714,-0.5709,-0.5711,-0.5729,-0.5734,-0.5753,-0.5745,-0.5711,-0.5765,-0.5766,-0.5754,-0.5684,-0.5669,-0.5662,-0.5725,-0.5724,-0.5723,-0.5683,0,-0.5609,-0.56,-0.5624,-0.5609,-0.5607,-0.564,-0.5634,-0.5646,-0.566,-0.5661,-0.5678,-0.5678,-0.5703,-0.5706,-0.57,-0.5716,-0.5697,-0.572,-0.572,-0.572,-0.5714,-0.5655,-0.5639,-0.5599,-0.5678,-0.5677,-0.5676,0,-0.5558,-0.5565,-0.555,-0.5571,-0.5571,-0.5566,-0.5575,-0.5576,-0.559,-0.5601,-0.5607,-0.5629,-0.5624,-0.565,-0.5643,-0.5658,-0.566,-0.5668,-0.5667,-0.5667,-0.5695,-0.5653,-0.5588,-0.5581,-0.5669,-0.5669,-0.567,0,-0.5503,-0.551,-0.5501,-0.5507,-0.5531,-0.5527,-0.5537,-0.5552,-0.5555,-0.5563,-0.5565,-0.5572,-0.5576,-0.5581,-0.5604,-0.5621,-0.5595,-0.5622,-0.5604,-0.5603,-0.5595,-0.5595,-0.5529,-0.5598,-0.5599,-0.5599,-0.5599,0,-0.5453,-0.5442,-0.5477,-0.5472,-0.5461,-0.5489,-0.5477,-0.5491,-0.5504,-0.5502,-0.5531,-0.5528,-0.5559,-0.556,-0.5578,-0.557,-0.5572,-0.558,-0.5585,-0.5577,-0.5576,-0.5577,-0.558,-0.5597,-0.5597,-0.5598,-0.5598,0,-0.5389,-0.5413,-0.5406,-0.543,-0.5436,-0.5426,-0.5447,-0.5443,-0.546,-0.5457,-0.5458,-0.5484,-0.5487,-0.5511,-0.5519,-0.5531,-0.5515,-0.5526,-0.551,-0.5513,-0.5493,-0.5494,-0.5424,-0.5416,-0.5492,-0.5491,-0.549,0,-0.5354,-0.5347,-0.5371,-0.5371,-0.538,-0.5381,-0.5385,-0.5413,-0.5415,-0.5431,-0.5425,-0.543,-0.5435,-0.5438,-0.5457,-0.5464,-0.5474,-0.5449,-0.5475,-0.5467,-0.5472,-0.5472,-0.5471,-0.5443,-0.5442,-0.5441,-0.5441,0,-0.529,-0.5303,-0.5307,-0.5315,-0.5318,-0.5326,-0.5335,-0.5334,-0.5365,-0.5367,-0.537,-0.5374,-0.5382,-0.5387,-0.5396,-0.5407,-0.5428,-0.5433,-0.5428,-0.5419,-0.541,-0.5414,-0.5494,-0.5434,-0.5434,-0.5435,-0.5435,-0.5436,-0.524,-0.5234,-0.525,-0.5254,-0.5264,-0.5273,-0.527,-0.5287,-0.529,-0.5299,-0.5316,-0.5317,-0.5332,-0.5347,-0.5356,-0.5357,-0.537,-0.5364,-0.5362,-0.536,-0.5355,-0.5411,-0.5359,-0.5359,-0.5359,-0.5359,-0.536,0,-0.5176,-0.5189,-0.5192,-0.5204,-0.5207,-0.5228,-0.524,-0.5241,-0.5241,-0.5253,-0.5258,-0.5262,-0.5267,-0.5287,-0.5294,-0.5291,-0.5301,-0.5292,-0.5292,-0.5294,-0.5344,-0.5346,-0.5283,-0.5283,-0.5283,-0.5283,-0.5284,-0.5284,-0.5143,-0.5136,-0.515,-0.5148,-0.516,-0.5161,-0.5166,-0.5174,-0.5184,-0.5187,-0.5191,-0.5205,-0.522,-0.5229,-0.5234,-0.524,-0.5241,-0.5228,-0.5237,-0.5283,-0.529,-0.5297,-0.5299,-0.5228,-0.5228,-0.5187,-0.5186,-0.5186]}]]